TimeCST,TemperatureF,Dew PointF,Humidity,Sea Level PressureIn,VisibilityMPH,Wind Direction,Wind SpeedMPH,Gust SpeedMPH,PrecipitationIn,Events,Conditions,WindDirDegrees,DateUTC
12:15 AM,32.0,30.2,93,30.13,10.0,Calm,Calm,-,N/A,,Clear,0,2013-01-21 06:15:00
12:35 AM,33.8,28.4,81,30.13,10.0,Calm,Calm,-,N/A,,Clear,0,2013-01-21 06:35:00
12:55 AM,30.2,28.4,93,30.13,10.0,Calm,Calm,-,N/A,,Clear,0,2013-01-21 06:55:00
1:15 AM,30.2,28.4,93,30.13,10.0,Calm,Calm,-,N/A,,Clear,0,2013-01-21 07:15:00
1:35 AM,30.2,28.4,93,30.13,10.0,Calm,Calm,-,N/A,,Clear,0,2013-01-21 07:35:00
1:55 AM,30.2,26.6,86,30.14,10.0,Calm,Calm,-,N/A,,Clear,0,2013-01-21 07:55:00
2:15 AM,30.2,28.4,93,30.13,10.0,Calm,Calm,-,N/A,,Clear,0,2013-01-21 08:15:00
2:35 AM,30.2,26.6,86,30.13,10.0,Calm,Calm,-,N/A,,Clear,0,2013-01-21 08:35:00
2:55 AM,30.2,28.4,93,30.13,10.0,Calm,Calm,-,N/A,,Clear,0,2013-01-21 08:55:00
3:15 AM,30.2,26.6,86,30.13,10.0,Calm,Calm,-,N/A,,Clear,0,2013-01-21 09:15:00
3:35 AM,28.4,26.6,93,30.12,10.0,Calm,Calm,-,N/A,,Clear,0,2013-01-21 09:35:00
3:55 AM,30.2,26.6,86,30.12,10.0,Calm,Calm,-,N/A,,Clear,0,2013-01-21 09:55:00
4:15 AM,28.4,26.6,93,30.12,10.0,Calm,Calm,-,N/A,,Clear,0,2013-01-21 10:15:00
4:35 AM,30.2,26.6,86,30.12,10.0,Calm,Calm,-,N/A,,Clear,0,2013-01-21 10:35:00
4:55 AM,30.2,28.4,93,30.13,10.0,Calm,Calm,-,N/A,,Clear,0,2013-01-21 10:55:00
5:15 AM,30.2,26.6,86,30.13,10.0,Calm,Calm,-,N/A,,Clear,0,2013-01-21 11:15:00
5:35 AM,28.4,26.6,93,30.13,10.0,Calm,Calm,-,N/A,,Clear,0,2013-01-21 11:35:00
5:55 AM,28.4,24.8,86,30.13,10.0,Calm,Calm,-,N/A,,Clear,0,2013-01-21 11:55:00
6:15 AM,28.4,26.6,93,30.13,10.0,Calm,Calm,-,N/A,,Clear,0,2013-01-21 12:15:00
6:35 AM,28.4,26.6,93,30.14,10.0,Calm,Calm,-,N/A,,Clear,0,2013-01-21 12:35:00
6:55 AM,28.4,24.8,86,30.15,10.0,Calm,Calm,-,N/A,,Clear,0,2013-01-21 12:55:00
7:15 AM,28.4,26.6,93,30.15,10.0,Calm,Calm,-,N/A,,Clear,0,2013-01-21 13:15:00
7:35 AM,30.2,28.4,93,30.16,10.0,Calm,Calm,-,N/A,,Clear,0,2013-01-21 13:35:00
7:55 AM,32.0,30.2,93,30.16,10.0,Calm,Calm,-,N/A,,Clear,0,2013-01-21 13:55:00
8:15 AM,35.6,32.0,87,30.16,10.0,Calm,Calm,-,N/A,,Clear,0,2013-01-21 14:15:00
8:35 AM,37.4,33.8,87,30.17,10.0,Calm,Calm,-,N/A,,Clear,0,2013-01-21 14:35:00
8:55 AM,41.0,35.6,81,30.18,10.0,NNW,3.5,-,N/A,,Clear,330,2013-01-21 14:55:00
9:15 AM,44.6,35.6,71,30.20,10.0,NNW,3.5,-,N/A,,Clear,340,2013-01-21 15:15:00
9:35 AM,46.4,35.6,66,30.20,10.0,NNW,3.5,-,N/A,,Clear,340,2013-01-21 15:35:00
9:55 AM,48.2,35.6,62,30.20,10.0,NW,10.4,-,N/A,,Clear,320,2013-01-21 15:55:00
10:15 AM,48.2,35.6,62,30.21,10.0,NNW,10.4,-,N/A,,Clear,340,2013-01-21 16:15:00
10:35 AM,50.0,33.8,54,30.21,10.0,North,13.8,-,N/A,,Clear,350,2013-01-21 16:35:00
10:55 AM,51.8,30.2,44,30.20,10.0,North,5.8,-,N/A,,Clear,350,2013-01-21 16:55:00
11:15 AM,51.8,30.2,44,30.20,10.0,NW,12.7,17.3,N/A,,Clear,320,2013-01-21 17:15:00
11:35 AM,50.0,28.4,43,30.20,10.0,NNW,10.4,17.3,N/A,,Clear,330,2013-01-21 17:35:00
11:55 AM,50.0,28.4,43,30.19,10.0,NW,9.2,18.4,N/A,,Clear,320,2013-01-21 17:55:00
12:15 PM,50.0,26.6,40,30.19,10.0,NW,13.8,20.7,N/A,,Clear,310,2013-01-21 18:15:00
12:35 PM,48.2,24.8,40,30.18,10.0,NW,12.7,17.3,N/A,,Clear,310,2013-01-21 18:35:00
12:55 PM,50.0,23.0,35,30.18,10.0,NNW,9.2,-,N/A,,Clear,330,2013-01-21 18:55:00
1:15 PM,50.0,21.2,32,30.18,10.0,NW,12.7,-,N/A,,Clear,320,2013-01-21 19:15:00
1:35 PM,50.0,23.0,35,30.18,10.0,NNW,11.5,-,N/A,,Clear,330,2013-01-21 19:35:00
1:55 PM,48.2,21.2,34,30.19,10.0,North,12.7,19.6,N/A,,Clear,350,2013-01-21 19:55:00
2:15 PM,50.0,23.0,35,30.18,10.0,North,9.2,-,N/A,,Clear,360,2013-01-21 20:15:00
2:35 PM,50.0,23.0,35,30.17,10.0,NNW,6.9,-,N/A,,Clear,340,2013-01-21 20:35:00
2:55 PM,50.0,24.8,37,30.17,10.0,WNW,6.9,-,N/A,,Clear,300,2013-01-21 20:55:00
3:15 PM,50.0,24.8,37,30.18,10.0,NNW,13.8,-,N/A,,Clear,340,2013-01-21 21:15:00
3:35 PM,48.2,23.0,37,30.18,10.0,NNW,9.2,-,N/A,,Clear,330,2013-01-21 21:35:00
3:55 PM,48.2,23.0,37,30.19,10.0,NNW,6.9,-,N/A,,Clear,330,2013-01-21 21:55:00
4:15 PM,48.2,21.2,34,30.19,10.0,NNW,6.9,-,N/A,,Clear,330,2013-01-21 22:15:00
4:35 PM,46.4,21.2,37,30.19,10.0,NNW,8.1,-,N/A,,Clear,340,2013-01-21 22:35:00
4:55 PM,44.6,21.2,39,30.20,10.0,NNW,6.9,-,N/A,,Clear,340,2013-01-21 22:55:00
5:15 PM,44.6,21.2,39,30.20,10.0,NNW,4.6,-,N/A,,Clear,340,2013-01-21 23:15:00
5:35 PM,42.8,19.4,39,30.21,10.0,NW,4.6,-,N/A,,Clear,310,2013-01-21 23:35:00
5:55 PM,37.4,24.8,60,30.21,10.0,WNW,6.9,-,N/A,,Clear,300,2013-01-21 23:55:00
6:15 PM,41.0,19.4,42,30.22,10.0,West,4.6,-,N/A,,Clear,280,2013-01-22 00:15:00
6:35 PM,39.2,19.4,45,30.22,10.0,WNW,4.6,-,N/A,,Clear,290,2013-01-22 00:35:00
6:55 PM,37.4,19.4,48,30.22,10.0,WNW,4.6,-,N/A,,Clear,290,2013-01-22 00:55:00
7:15 PM,35.6,21.2,56,30.22,10.0,West,3.5,-,N/A,,Clear,280,2013-01-22 01:15:00
7:35 PM,35.6,21.2,56,30.23,10.0,West,3.5,-,N/A,,Clear,270,2013-01-22 01:35:00
7:55 PM,33.8,23.0,65,30.23,10.0,Calm,Calm,-,N/A,,Clear,0,2013-01-22 01:55:00
8:15 PM,33.8,23.0,65,30.23,10.0,Calm,Calm,-,N/A,,Clear,0,2013-01-22 02:15:00
8:35 PM,33.8,19.4,56,30.23,10.0,Calm,Calm,-,N/A,,Clear,0,2013-01-22 02:35:00
8:55 PM,30.2,21.2,69,30.24,10.0,West,3.5,-,N/A,,Clear,270,2013-01-22 02:55:00
9:15 PM,30.2,21.2,69,30.24,10.0,WNW,3.5,-,N/A,,Clear,300,2013-01-22 03:15:00
9:35 PM,30.2,21.2,69,30.24,10.0,NW,3.5,-,N/A,,Clear,310,2013-01-22 03:35:00
9:55 PM,30.2,21.2,69,30.24,10.0,WNW,3.5,-,N/A,,Clear,300,2013-01-22 03:55:00
10:35 PM,32.0,17.6,55,30.24,10.0,NNW,3.5,-,N/A,,Clear,340,2013-01-22 04:35:00
10:55 PM,32.0,19.4,60,30.24,10.0,NW,4.6,-,N/A,,Clear,320,2013-01-22 04:55:00
11:15 PM,33.8,19.4,56,30.24,10.0,NNW,5.8,-,N/A,,Clear,330,2013-01-22 05:15:00
11:35 PM,32.0,19.4,60,30.24,10.0,NNW,5.8,-,N/A,,Clear,330,2013-01-22 05:35:00
11:55 PM,33.8,17.6,52,30.24,10.0,NNW,5.8,-,N/A,,Clear,340,2013-01-22 05:55:00